Time,TemperatureF,DewpointF,PressureIn,WindDirection,WindDirectionDegrees,WindSpeedMPH,WindSpeedGustMPH,Humidity,HourlyPrecipIn,Conditions,Clouds,dailyrainin,SoftwareType,DateUTC
2013-01-15 00:08:00,5.7,0.0,29.87,NNW,327,7.0,25.0,0,0.00,CLR,CLR,0.00,WeatherDisplay:10.36,2013-01-15 07:08:00,
2013-01-15 00:23:00,5.6,0.0,29.88,NNW,330,7.0,17.0,0,0.00,CLR,CLR,0.00,WeatherDisplay:10.36,2013-01-15 07:23:00,
2013-01-15 00:38:00,5.6,0.0,29.87,NNW,334,1.0,21.0,0,0.00,CLR,CLR,0.00,WeatherDisplay:10.36,2013-01-15 07:38:00,
2013-01-15 00:53:00,5.6,0.0,29.88,NNW,332,5.0,29.0,0,0.00,CLR,CLR,0.00,WeatherDisplay:10.36,2013-01-15 07:53:00,
2013-01-15 01:08:00,5.7,0.0,29.88,NNW,328,6.0,21.0,0,0.00,CLR,CLR,0.00,WeatherDisplay:10.36,2013-01-15 08:08:00,
2013-01-15 01:23:00,5.7,0.0,29.88,NNW,327,5.0,17.0,0,0.00,CLR,CLR,0.00,WeatherDisplay:10.36,2013-01-15 08:23:00,
2013-01-15 01:38:00,5.9,0.0,29.88,NNW,327,7.0,20.0,0,0.00,CLR,CLR,0.00,WeatherDisplay:10.36,2013-01-15 08:38:00,
2013-01-15 01:53:00,5.8,0.0,29.88,NNW,329,6.0,21.0,0,0.00,CLR,CLR,0.00,WeatherDisplay:10.36,2013-01-15 08:53:00,
2013-01-15 02:08:00,5.4,0.0,29.89,NW,324,5.0,20.0,0,0.00,CLR,CLR,0.00,WeatherDisplay:10.36,2013-01-15 09:08:00,
2013-01-15 02:23:00,5.7,0.0,29.89,NW,325,2.0,22.0,0,0.00,CLR,CLR,0.00,WeatherDisplay:10.36,2013-01-15 09:23:00,
2013-01-15 02:38:00,6.2,0.0,29.90,NNW,330,6.0,20.0,0,0.00,CLR,CLR,0.00,WeatherDisplay:10.36,2013-01-15 09:38:00,
2013-01-15 02:53:00,6.4,0.0,29.89,NNW,329,6.0,17.0,0,0.00,CLR,CLR,0.00,WeatherDisplay:10.36,2013-01-15 09:53:00,
2013-01-15 03:08:00,6.4,0.0,29.89,NW,325,8.0,21.0,0,0.00,CLR,CLR,0.00,WeatherDisplay:10.36,2013-01-15 10:08:00,
2013-01-15 03:23:00,6.5,0.0,29.89,NW,326,3.0,15.0,0,0.00,CLR,CLR,0.00,WeatherDisplay:10.36,2013-01-15 10:23:00,
2013-01-15 03:38:00,6.8,0.0,29.88,NNW,331,3.0,13.0,0,0.00,CLR,CLR,0.00,WeatherDisplay:10.36,2013-01-15 10:38:00,
2013-01-15 03:53:00,7.9,0.0,29.89,NNW,330,6.0,13.0,0,0.00,CLR,CLR,0.00,WeatherDisplay:10.36,2013-01-15 10:53:00,
2013-01-15 04:08:00,8.8,0.0,29.89,NNW,332,3.0,15.0,0,0.00,CLR,CLR,0.00,WeatherDisplay:10.36,2013-01-15 11:08:00,
2013-01-15 04:23:00,8.6,0.0,29.89,NNW,342,0.0,12.0,0,0.00,CLR,CLR,0.00,WeatherDisplay:10.36,2013-01-15 11:23:00,
2013-01-15 04:38:00,8.6,0.0,29.89,NNW,337,2.0,17.0,0,0.00,CLR,CLR,0.00,WeatherDisplay:10.36,2013-01-15 11:38:00,
2013-01-15 04:53:00,8.9,0.0,29.90,North,353,1.0,13.0,0,0.00,CLR,CLR,0.00,WeatherDisplay:10.36,2013-01-15 11:53:00,
2013-01-15 05:08:00,9.3,0.0,29.90,NNW,340,1.0,10.0,0,0.00,CLR,CLR,0.00,WeatherDisplay:10.36,2013-01-15 12:08:00,
2013-01-15 05:23:00,9.4,0.0,29.90,NW,326,0.0,13.0,0,0.00,CLR,CLR,0.00,WeatherDisplay:10.36,2013-01-15 12:23:00,
2013-01-15 05:38:00,10.2,0.0,29.89,NW,322,1.0,13.0,0,0.00,CLR,CLR,0.00,WeatherDisplay:10.36,2013-01-15 12:38:00,
2013-01-15 05:53:00,10.9,0.0,29.91,NNW,335,2.0,13.0,0,0.00,CLR,CLR,0.00,WeatherDisplay:10.36,2013-01-15 12:53:00,
2013-01-15 06:08:00,11.7,0.0,29.90,NNW,333,0.0,12.0,0,0.00,CLR,CLR,0.00,WeatherDisplay:10.36,2013-01-15 13:08:00,
2013-01-15 06:23:00,12.3,0.0,29.92,NNW,345,0.0,8.0,0,0.00,CLR,CLR,0.00,WeatherDisplay:10.36,2013-01-15 13:23:00,
2013-01-15 06:38:00,12.7,0.0,29.91,NNW,329,6.0,12.0,0,0.00,CLR,CLR,0.00,WeatherDisplay:10.36,2013-01-15 13:38:00,
2013-01-15 06:53:00,13.6,0.0,29.91,NNW,329,5.0,16.0,0,0.00,CLR,CLR,0.00,WeatherDisplay:10.36,2013-01-15 13:53:00,
2013-01-15 07:08:00,14.5,0.0,29.92,NNW,338,2.0,10.0,0,0.00,CLR,CLR,0.00,WeatherDisplay:10.36,2013-01-15 14:08:00,
2013-01-15 07:23:00,14.9,0.0,29.92,NNW,331,0.0,10.0,0,0.00,CLR,CLR,0.00,WeatherDisplay:10.36,2013-01-15 14:23:00,
2013-01-15 07:38:00,15.7,0.0,29.93,NW,325,1.0,7.0,0,0.00,CLR,CLR,0.00,WeatherDisplay:10.36,2013-01-15 14:38:00,
2013-01-15 07:53:00,16.6,0.0,29.94,NNW,342,0.0,8.0,0,0.00,CLR,CLR,0.00,WeatherDisplay:10.36,2013-01-15 14:53:00,
2013-01-15 08:08:00,17.6,0.0,29.95,NNW,338,1.0,9.0,0,0.00,CLR,CLR,0.00,WeatherDisplay:10.36,2013-01-15 15:08:00,
2013-01-15 08:23:00,19.5,0.0,29.95,NNW,327,1.0,11.0,0,0.00,CLR,CLR,0.00,WeatherDisplay:10.36,2013-01-15 15:23:00,
2013-01-15 08:38:00,21.1,0.0,29.96,NW,326,6.0,15.0,0,0.00,CLR,CLR,0.00,WeatherDisplay:10.36,2013-01-15 15:38:00,
2013-01-15 08:53:00,20.8,0.0,29.96,NW,323,1.0,15.0,0,0.00,CLR,CLR,0.00,WeatherDisplay:10.36,2013-01-15 15:53:00,
2013-01-15 09:08:00,20.5,0.0,29.97,NNW,329,6.0,14.0,0,0.00,CLR,CLR,0.00,WeatherDisplay:10.36,2013-01-15 16:08:00,
2013-01-15 09:23:00,20.8,0.0,29.99,NNW,328,3.0,13.0,0,0.00,CLR,CLR,0.00,WeatherDisplay:10.36,2013-01-15 16:23:00,
2013-01-15 09:38:00,21.6,0.0,29.98,NW,321,2.0,14.0,0,0.00,CLR,CLR,0.00,WeatherDisplay:10.36,2013-01-15 16:38:00,
2013-01-15 09:53:00,22.7,0.0,29.98,NNE,15,0.0,7.0,0,0.00,CLR,CLR,0.00,WeatherDisplay:10.36,2013-01-15 16:53:00,
2013-01-15 10:08:00,23.8,0.0,29.98,East,89,0.0,3.0,0,0.00,CLR,CLR,0.00,WeatherDisplay:10.36,2013-01-15 17:08:00,
2013-01-15 10:23:00,24.7,0.0,29.98,South,175,0.0,0.0,0,0.00,CLR,CLR,0.00,WeatherDisplay:10.36,2013-01-15 17:23:00,
2013-01-15 10:38:00,26.6,0.0,29.97,NW,320,1.0,9.0,0,0.00,CLR,CLR,0.00,WeatherDisplay:10.36,2013-01-15 17:38:00,
2013-01-15 10:53:00,27.2,0.0,29.98,NNW,334,1.0,10.0,0,0.00,CLR,CLR,0.00,WeatherDisplay:10.36,2013-01-15 17:53:00,
2013-01-15 11:08:00,27.3,0.0,29.97,NW,322,6.0,15.0,0,0.00,CLR,CLR,0.00,WeatherDisplay:10.36,2013-01-15 18:08:00,
2013-01-15 11:23:00,27.2,0.0,29.96,NW,326,3.0,17.0,0,0.00,CLR,CLR,0.00,WeatherDisplay:10.36,2013-01-15 18:23:00,
2013-01-15 11:38:00,27.6,0.0,29.97,NNW,329,6.0,12.0,0,0.00,CLR,CLR,0.00,WeatherDisplay:10.36,2013-01-15 18:38:00,
2013-01-15 11:53:00,28.5,0.0,29.97,NNW,333,5.0,12.0,0,0.00,CLR,CLR,0.00,WeatherDisplay:10.36,2013-01-15 18:53:00,
2013-01-15 12:08:00,28.2,0.0,29.97,NNW,333,3.0,12.0,0,0.00,CLR,CLR,0.00,WeatherDisplay:10.36,2013-01-15 19:08:00,
2013-01-15 12:23:00,29.3,0.0,29.98,NNW,334,3.0,15.0,0,0.00,CLR,CLR,0.00,WeatherDisplay:10.36,2013-01-15 19:23:00,
2013-01-15 12:38:00,29.2,0.0,29.98,NW,322,2.0,10.0,0,0.00,CLR,CLR,0.00,WeatherDisplay:10.36,2013-01-15 19:38:00,
2013-01-15 12:53:00,30.1,0.0,29.99,NNW,331,3.0,13.0,0,0.00,CLR,CLR,0.00,WeatherDisplay:10.36,2013-01-15 19:53:00,
2013-01-15 13:08:00,31.6,0.0,29.99,NW,326,2.0,13.0,0,0.00,CLR,CLR,0.00,WeatherDisplay:10.36,2013-01-15 20:08:00,
2013-01-15 13:23:00,31.4,0.0,29.99,NNW,332,3.0,12.0,0,0.00,CLR,CLR,0.00,WeatherDisplay:10.36,2013-01-15 20:23:00,
2013-01-15 13:38:00,32.8,0.0,29.99,NNW,328,1.0,10.0,0,0.00,CLR,CLR,0.00,WeatherDisplay:10.36,2013-01-15 20:38:00,
2013-01-15 13:53:00,32.5,0.0,30.00,NNW,342,5.0,10.0,0,0.00,CLR,CLR,0.00,WeatherDisplay:10.36,2013-01-15 20:53:00,
2013-01-15 14:08:00,33.6,0.0,29.99,NNW,335,1.0,8.0,0,0.00,CLR,CLR,0.00,WeatherDisplay:10.36,2013-01-15 21:08:00,
2013-01-15 14:23:00,33.0,0.0,30.00,NNW,333,2.0,11.0,0,0.00,CLR,CLR,0.00,WeatherDisplay:10.36,2013-01-15 21:23:00,
2013-01-15 14:38:00,32.3,0.0,30.00,NW,326,5.0,14.0,0,0.00,CLR,CLR,0.00,WeatherDisplay:10.36,2013-01-15 21:38:00,
2013-01-15 14:53:00,31.4,0.0,30.00,NNW,329,6.0,10.0,0,0.00,CLR,CLR,0.00,WeatherDisplay:10.36,2013-01-15 21:53:00,
2013-01-15 15:08:00,31.4,0.0,30.01,NNW,331,5.0,9.0,0,0.00,CLR,CLR,0.00,WeatherDisplay:10.36,2013-01-15 22:08:00,
2013-01-15 15:23:00,31.0,0.0,30.02,NNW,337,1.0,14.0,0,0.00,CLR,CLR,0.00,WeatherDisplay:10.36,2013-01-15 22:23:00,
2013-01-15 15:38:00,31.0,0.0,30.02,NNW,332,3.0,10.0,0,0.00,CLR,CLR,0.00,WeatherDisplay:10.36,2013-01-15 22:38:00,
2013-01-15 15:53:00,29.9,0.0,30.02,NNW,327,7.0,14.0,0,0.00,CLR,CLR,0.00,WeatherDisplay:10.36,2013-01-15 22:53:00,
2013-01-15 16:08:00,28.6,0.0,30.02,NW,325,3.0,15.0,0,0.00,CLR,CLR,0.00,WeatherDisplay:10.36,2013-01-15 23:08:00,
2013-01-15 16:23:00,28.1,0.0,30.03,NNW,329,3.0,16.0,0,0.00,CLR,CLR,0.00,WeatherDisplay:10.36,2013-01-15 23:23:00,
2013-01-15 16:38:00,27.4,0.0,30.04,NW,323,5.0,12.0,0,0.00,CLR,CLR,0.00,WeatherDisplay:10.36,2013-01-15 23:38:00,
2013-01-15 16:53:00,27.4,0.0,30.04,NNW,329,1.0,8.0,0,0.00,CLR,CLR,0.00,WeatherDisplay:10.36,2013-01-15 23:53:00,
2013-01-15 17:08:00,27.4,0.0,30.03,NNW,331,5.0,12.0,0,0.00,CLR,CLR,0.00,WeatherDisplay:10.36,2013-01-16 00:08:00,
2013-01-15 17:23:00,27.4,0.0,30.03,NNW,329,0.0,18.0,0,0.00,CLR,CLR,0.00,WeatherDisplay:10.36,2013-01-16 00:23:00,
2013-01-15 17:38:00,27.7,0.0,30.04,NW,326,5.0,18.0,0,0.00,CLR,CLR,0.00,WeatherDisplay:10.36,2013-01-16 00:38:00,
2013-01-15 17:53:00,27.7,0.0,30.05,NW,324,7.0,17.0,0,0.00,CLR,CLR,0.00,WeatherDisplay:10.36,2013-01-16 00:53:00,
2013-01-15 18:08:00,27.7,0.0,30.07,NNW,330,6.0,10.0,0,0.00,CLR,CLR,0.00,WeatherDisplay:10.36,2013-01-16 01:08:00,
2013-01-15 18:23:00,27.4,0.0,30.07,NW,324,6.0,17.0,0,0.00,CLR,CLR,0.00,WeatherDisplay:10.36,2013-01-16 01:23:00,
2013-01-15 18:38:00,27.3,0.0,30.07,NW,321,6.0,14.0,0,0.00,CLR,CLR,0.00,WeatherDisplay:10.36,2013-01-16 01:38:00,
2013-01-15 18:53:00,27.6,0.0,30.07,NNW,330,3.0,17.0,0,0.00,CLR,CLR,0.00,WeatherDisplay:10.36,2013-01-16 01:53:00,
2013-01-15 19:08:00,28.0,0.0,30.08,NW,323,3.0,15.0,0,0.00,CLR,CLR,0.00,WeatherDisplay:10.36,2013-01-16 02:08:00,
2013-01-15 19:23:00,28.2,0.0,30.08,NNW,332,3.0,15.0,0,0.00,CLR,CLR,0.00,WeatherDisplay:10.36,2013-01-16 02:23:00,
2013-01-15 19:38:00,28.6,0.0,30.07,NNW,333,2.0,16.0,0,0.00,CLR,CLR,0.00,WeatherDisplay:10.36,2013-01-16 02:38:00,
2013-01-15 19:53:00,28.7,0.0,30.08,NW,321,5.0,14.0,0,0.00,CLR,CLR,0.00,WeatherDisplay:10.36,2013-01-16 02:53:00,
2013-01-15 20:08:00,29.1,0.0,30.07,NNW,328,6.0,14.0,0,0.00,CLR,CLR,0.00,WeatherDisplay:10.36,2013-01-16 03:08:00,
2013-01-15 20:23:00,29.0,0.0,30.08,NNW,331,6.0,13.0,0,0.00,CLR,CLR,0.00,WeatherDisplay:10.36,2013-01-16 03:23:00,
2013-01-15 20:38:00,29.4,0.0,30.07,NNW,329,5.0,17.0,0,0.00,CLR,CLR,0.00,WeatherDisplay:10.36,2013-01-16 03:38:00,
2013-01-15 20:53:00,29.7,0.0,30.08,NNW,332,3.0,12.0,0,0.00,CLR,CLR,0.00,WeatherDisplay:10.36,2013-01-16 03:53:00,
2013-01-15 21:08:00,29.8,0.0,30.09,NW,326,6.0,14.0,0,0.00,CLR,CLR,0.00,WeatherDisplay:10.36,2013-01-16 04:08:00,
2013-01-15 21:23:00,29.8,0.0,30.10,NNW,331,0.0,6.0,0,0.00,CLR,CLR,0.00,WeatherDisplay:10.36,2013-01-16 04:23:00,
2013-01-15 21:38:00,30.0,0.0,30.10,NW,323,0.0,6.0,0,0.00,CLR,CLR,0.00,WeatherDisplay:10.36,2013-01-16 04:38:00,
2013-01-15 21:53:00,29.9,0.0,30.10,NNW,329,0.0,12.0,0,0.00,CLR,CLR,0.00,WeatherDisplay:10.36,2013-01-16 04:53:00,
2013-01-15 22:08:00,30.0,0.0,30.10,NNW,329,2.0,14.0,0,0.00,CLR,CLR,0.00,WeatherDisplay:10.36,2013-01-16 05:08:00,
2013-01-15 22:23:00,30.1,0.0,30.11,North,358,0.0,8.0,0,0.00,CLR,CLR,0.00,WeatherDisplay:10.36,2013-01-16 05:23:00,
2013-01-15 22:38:00,30.2,0.0,30.11,NNW,334,0.0,10.0,0,0.00,CLR,CLR,0.00,WeatherDisplay:10.36,2013-01-16 05:38:00,
2013-01-15 22:53:00,29.6,0.0,30.11,NNW,330,7.0,12.0,0,0.00,CLR,CLR,0.00,WeatherDisplay:10.36,2013-01-16 05:53:00,
2013-01-15 23:08:00,29.4,0.0,30.11,NW,325,8.0,15.0,0,0.00,CLR,CLR,0.00,WeatherDisplay:10.36,2013-01-16 06:08:00,
2013-01-15 23:23:00,29.0,0.0,30.11,NW,319,9.0,18.0,0,0.00,CLR,CLR,0.00,WeatherDisplay:10.36,2013-01-16 06:23:00,
2013-01-15 23:38:00,29.1,0.0,30.11,NW,318,8.0,17.0,0,0.00,CLR,CLR,0.00,WeatherDisplay:10.36,2013-01-16 06:38:00,
2013-01-15 23:53:00,29.0,0.0,30.12,NW,320,2.0,15.0,0,0.00,CLR,CLR,0.00,WeatherDisplay:10.36,2013-01-16 06:53:00,